This is the latest recevied weather packets stored in our database for station/object KG5WBN. If no packets are shown the sender has not sent any weather packets the latest 10 day(s).
| Time | Temp. | Humidity | Pressure | Rain* | Wind** | Luminosity | Snow |
|---|---|---|---|---|---|---|---|
| 1777762379 | 23.89° C | 33% | 1015.2 hPa | 0 mm | - | 55 W/m² | - |
| 1777762075 | 23.89° C | 33% | 1014.9 hPa | 0 mm | - | 50 W/m² | - |
| 1777761772 | 23.89° C | 32% | 1014.9 hPa | 0 mm | - | 40 W/m² | - |
| 1777761470 | 23.33° C | 31% | 1014.6 hPa | 0 mm | - | 40 W/m² | - |
| 1777761168 | 23.33° C | 30% | 1014.6 hPa | 0 mm | - | 39 W/m² | - |
| 1777760865 | 23.33° C | 29% | 1014.6 hPa | 0 mm | - | 41 W/m² | - |
| 1777760562 | 23.89° C | 28% | 1014.6 hPa | 0 mm | - | 41 W/m² | - |
| 1777760257 | 23.89° C | 27% | 1014.6 hPa | 0 mm | - | 69 W/m² | - |
| 1777759949 | 23.89° C | 25% | 1014.6 hPa | 0 mm | - | 50 W/m² | - |
| 1777759645 | 25° C | 25% | 1014.6 hPa | 0 mm | - | 290 W/m² | - |
| 1777759341 | 24.44° C | 25% | 1014.6 hPa | 0 mm | - | 302 W/m² | - |
| 1777759038 | 24.44° C | 25% | 1014.6 hPa | 0 mm | - | 307 W/m² | - |
| 1777758735 | 25° C | 24% | 1014.9 hPa | 0 mm | - | 313 W/m² | - |
| 1777758432 | 23.89° C | 25% | 1014.6 hPa | 0 mm | - | 316 W/m² | - |
| 1777758130 | 25° C | 24% | 1014.6 hPa | 0 mm | - | 320 W/m² | - |
| 1777757827 | 25° C | 24% | 1014.6 hPa | 0 mm | - | 324 W/m² | - |
| 1777757524 | 25° C | 25% | 1014.6 hPa | 0 mm | - | 327 W/m² | - |
| 1777757223 | 24.44° C | 25% | 1014.6 hPa | 0 mm | - | 329 W/m² | - |
| 1777756920 | 23.89° C | 25% | 1014.6 hPa | 0 mm | - | 330 W/m² | - |
| 1777756616 | 23.89° C | 25% | 1014.6 hPa | 0 mm | - | 337 W/m² | - |
| 1777756313 | 24.44° C | 24% | 1014.6 hPa | 0 mm | - | 340 W/m² | - |
| 1777756010 | 24.44° C | 24% | 1014.6 hPa | 0 mm | - | 342 W/m² | - |
| 1777755707 | 24.44° C | 25% | 1014.6 hPa | 0 mm | - | 344 W/m² | - |
| 1777755404 | 24.44° C | 25% | 1014.6 hPa | 0 mm | - | 345 W/m² | - |
| 1777755101 | 23.89° C | 25% | 1014.6 hPa | 0 mm | - | 347 W/m² | - |
* Rain latest hour (hover to see other rain measurements)
** Current wind speed in m/s (hover to see current wind gust speed)